STARLINK-32023, 60197

Orbit data source: Space-Track

STARLINK-32023, 60197 is a payload satellite owned by SpaceX/Seattle (US) in LEO that was launched on Wed, 03 Jul 2024 UTC via an FALCON 9 launch vehicle from the Air Force Eastern Test Range (AFETR). Payload-class satellites include a variety of spacecraft equipped with specific instruments for various scientific and technological missions. These include communications satellites like Starlink; space stations such as the ISS; scientific satellites like the Hubble; Earth observation satellites from companies like Planet Labs, Umbra, and HawkEye 360; GPS; miniature CubeSats for education and research; and military/defense satellites.

Loading next visibility...
Identifier
60197, 2024-124Q
Orbit
LEO
Last TLE update
6 hours ago
Origin
Manufacturer
SpaceX/Seattle
Mission
Operational Commercial Communications
Bus & Motor
STARLINK V2M, Unknown motor
Mass
730 kg wet, ~700 kg dry
Launch date (UTC)
2024-07-03 (1 year ago)
Launch vehicle
FALCON 9
Launch site
Air Force Eastern Test Range (AFETR)
Object type
Payload
Rocket body
Debris
Shape & HBR
Box + 2 Pan, 29 m
Radar Cross Section
36.964 m², Large (>1 m²)

Expand to show TLE details & history

TLE from 6 hours ago
0 STARLINK-32023
1 60197U 24124Q   25181.84936122  .00002323  00000-0  90540-4 0  9990
2 60197  53.1608  52.5693 0001199  84.6010 275.5127 15.30199710 56823
Epoch: 2025-06-30T20:23Z
TLE epoch observation values (Epoch: 2025-06-30T20:23:04.809Z)
Latitude
-0.00006°
Longitude
-172.35405°
Altitude
476.037 km
Speed
7.629 km/s
True Right ascension
03h 30m 16s
True Declination
0° 00' 00"
Sunlit
Object was in daylight at epoch
Visualization orbit readout
Latitude
-18.51254°
Longitude
172.00603°
Altitude
480.555 km
Speed
7.625 km/s
Apparent Right ascension
02h 20m 16s
Apparent Declination
-28° 41' 08"
Sunlit
Object is in daylight
Visualization observer readout
Local Sidereal Time
14:10:22
Azimuth
348.968° N
Elevation
-78.586°
Doppler factor
1
Orbital elements
Apogee altitude
476.294 km
Perigee altitude
474.65 km
Semi-major axis
6,853.609 km
Eccentricity
0.00012
Inclination
53.1608°
RAAN
52.5693°
Arg. of periapsis
84.601°
True anomaly
Unknown
Mean anomaly
275.5127°
Eccentric anomaly
Unknown
Mean motion
3.82529 °/min
Orbital period
94.11 mins
BSTAR
0.00009054
Loading maneuver chart data...
Loading SW <> Apogee altitude chart data...
Loading historical data...
Loading historical data...
Loading historical data...
Loading historical data...
Loading historical data...
Loading historical data...
Loading historical data...

STARLINK-32023 Visibility forecast

Observer location: undefined°, undefined°

Span
Click to sort rows by Start time (UTC) header in descending order
Start Az.
Max El. time (UTC)
Max El. Az.
Max El.
End time (UTC)
End Az.
4 mins2025-07-01 16:55:13.050Z164.465° S2025-07-01 16:57:13.050Z126.392° SE17.212°2025-07-01 16:59:13.050Z89.662° E
6 mins2025-07-01 18:32:13.050Z251.575° W2025-07-01 18:35:13.050Z353.808° N36.531°2025-07-01 18:38:13.050Z41.46° NE
4 mins2025-07-01 23:30:13.050Z353.892° N2025-07-01 23:31:13.050Z16.022° NNE20.402°2025-07-01 23:34:13.050Z75.676° E
6 mins2025-07-02 01:07:13.050Z300.163° NW2025-07-02 01:10:13.050Z185.501° SSW39.322°2025-07-02 01:13:13.050Z143.336° SSE
|